User: anonymous   Login
Location: Unspecified
(0.0000°N, 0.0000°E)
Time: 05:53:26
(UTC+00:00)
Language:

RISAT 1 - Orbit

View from above orbital plane
View from above orbital plane
View from above satellite
View from above satellite

Ground track
Ground track

The orbit data is extracted from the following two-line orbital elements,

1 38248U 12017A   14295.72924007  .00001936  00000-0  12652-3 0  8175
2 38248 097.5618 301.0815 0003403 127.5613 319.8486 15.08980362137198
Epoch (UTC): 22 October 2014 17:30:06
Eccentricity: 0.0003403
inclination: 97.5618°
perigee height: 537 km
apogee height: 541 km
right ascension of ascending node: 301.0815°
argument of perigee: 127.5613°
revolutions per day: 15.08980362
mean anomaly at epoch: 319.8486°
orbit number at epoch: 13719

The dashed part of the orbit path shows where the satellite is in the earth's shadow,  

DLR